MST,Max TemperatureF,Mean TemperatureF,Min TemperatureF,Max Dew PointF,MeanDew PointF,Min DewpointF,Max Humidity, Mean Humidity, Min Humidity, Max Sea Level PressureIn, Mean Sea Level PressureIn, Min Sea Level PressureIn, Max VisibilityMiles, Mean VisibilityMiles, Min VisibilityMiles, Max Wind SpeedMPH, Mean Wind SpeedMPH, Max Gust SpeedMPH,PrecipitationIn, CloudCover, Events, WindDirDegrees
2013-12-1,43,36,28,25,21,17,63,54,44,30.15,29.98,29.79,10,10,10,44,23,52,0.00,4,,244
2013-12-2,42,38,34,25,23,20,61,54,46,29.81,29.66,29.50,10,10,10,38,20,47,0.00,6,,239
2013-12-3,35,19,3,27,14,0,92,76,59,29.74,29.54,29.41,10,2,0,25,11,33,0.07,8,Fog-Snow,346
2013-12-4,3,-11,-26,-1,-10,-25,95,84,72,30.31,29.80,29.54,10,2,0,22,10,25,T,5,Fog-Snow,344
2013-12-5,-6,-18,-31,-12,-21,-33,89,81,72,30.41,30.27,29.81,10,8,2,14,5,15,T,0,Snow,228
2013-12-6,-1,-14,-27,-8,-18,-30,92,82,72,30.46,30.40,30.34,10,10,7,14,4,14,T,3,Snow,222
2013-12-7,15,0,-16,4,-4,-19,95,77,58,30.35,30.02,29.77,10,10,9,21,10,26,0.00,3,,149
2013-12-8,10,0,-11,0,-8,-15,91,77,63,30.15,29.83,29.52,10,7,2,23,7,28,T,3,Snow,287
2013-12-9,9,0,-10,0,-6,-17,76,65,53,30.35,30.13,29.87,10,6,1,40,22,49,0.00,1,Snow,233
2013-12-10,20,14,8,14,7,0,77,66,54,30.29,30.07,29.92,10,5,0,41,22,51,0.00,4,Snow,241
2013-12-11,29,20,10,14,7,1,67,57,46,30.40,30.33,30.19,10,10,10,31,18,37,0.00,0,,233
2013-12-12,40,32,23,14,10,5,46,40,34,30.33,30.17,29.92,10,10,10,37,25,43,0.00,0,,229
2013-12-13,30,25,19,17,13,9,84,63,42,30.22,30.00,29.87,10,10,10,26,12,30,0.00,2,,316
2013-12-14,31,22,13,16,13,8,84,69,53,30.36,30.29,30.22,10,10,10,30,16,36,0.00,2,,254
2013-12-15,42,32,22,21,17,14,68,56,44,30.26,30.19,30.10,10,10,10,39,20,46,0.00,0,,235
2013-12-16,42,35,28,20,17,12,59,49,38,30.27,30.19,30.11,10,10,10,35,17,45,0.00,0,,266
2013-12-17,45,35,24,20,15,11,55,42,29,30.35,30.21,30.04,10,10,10,32,17,39,0.00,0,,239
2013-12-18,50,41,32,16,14,12,47,36,24,30.00,29.81,29.62,10,10,10,37,17,45,0.00,0,,237
2013-12-19,48,29,10,27,17,6,92,61,29,29.86,29.61,29.39,10,10,7,33,11,39,T,4,,258
2013-12-20,31,20,9,16,9,2,92,69,45,29.88,29.74,29.60,10,10,10,30,11,36,T,1,,264
2013-12-21,27,22,17,13,10,4,80,65,49,29.91,29.70,29.54,10,10,10,30,15,36,T,7,,311
2013-12-22,28,18,8,16,12,7,92,69,46,30.17,30.04,29.92,10,7,1,32,13,39,T,7,Snow,331
2013-12-23,34,20,6,22,16,4,91,74,56,30.32,30.21,30.08,10,9,2,38,15,47,T,6,Snow,239
2013-12-24,36,22,8,28,20,6,92,74,56,30.36,30.12,29.98,10,5,0,36,16,45,T,6,Fog-Snow,291
2013-12-25,32,21,10,14,7,3,67,52,37,30.53,30.41,30.31,10,10,10,23,13,26,0.00,0,,245
2013-12-26,41,29,17,20,11,3,65,51,37,30.40,30.31,30.23,10,10,10,23,10,30,0.00,0,,243
2013-12-27,46,33,20,24,17,14,77,55,33,30.38,30.24,30.02,10,10,10,22,8,25,0.00,0,,216
2013-12-28,37,26,14,21,17,10,92,68,44,30.22,30.03,29.91,10,5,0,25,12,30,0.03,5,Fog-Snow,11
2013-12-29,26,8,-10,14,2,-11,100,77,54,30.42,30.17,29.91,10,5,0,32,9,40,T,2,Fog-Snow,199
2013-12-30,32,27,21,16,14,10,68,59,50,30.25,30.17,30.05,10,10,10,30,20,41,0.00,3,,245
2013-12-31,38,33,27,25,21,15,78,65,52,30.09,30.00,29.90,10,10,10,41,21,48,0.00,3,,235